FW5754 Weather Reports


Display with metric or nautical units.
time (UTC)temp
F
wind
direction
speed
MPH
gust
MPH
rain 1hr
in
rain 24hr
in
rain mn
in
humidity
%
barometer
mb
20260510160532 58 175 6.0 13.0 0.00 0.21 0.01 92 1013.5
20260510160046 -54 144 4.0 12.0 0.00 0.21 0.01 100 1013.6
20260510155532 57 199 3.0 12.0 0.00 0.21 0.01 92 1013.7
20260510155031 55 5 1.0 9.0 0.00 0.21 0.01 1013.8
20260510154548 54 0 1.0 8.0 0.00 0.21 0.01 91 1013.9
20260510154032 53 5 0.0 3.0 0.00 0.21 0.01 1014.0
20260510153531 -63 0 0.0 3.0 0.00 0.21 0.01 1014.1
20260510153039 53 5 0.0 2.0 0.00 0.21 0.01 91 1014.1
20260510152531 53 5 0.0 4.0 0.00 0.21 0.01 91 1014.0
20260510152031 53 5 0.0 4.0 0.00 0.21 0.01 91 1014.1
20260510151543 53 5 2.0 4.0 0.00 0.21 0.01 91 1013.9
20260510151031 54 5 1.0 2.0 0.00 0.21 0.01 100 1013.9
20260510150531 53 0 0.0 3.0 0.00 0.21 0.01 91 1013.8
20260510150114 53 0 0.0 4.0 0.00 0.21 0.01 91 1013.9
20260510145531 54 5 1.0 4.0 0.00 0.21 0.01 91 1013.8
20260510145031 54 5 1.0 3.0 0.00 0.21 0.01 91 1013.6
20260510144553 54 0 0.0 3.0 0.00 0.21 0.01 91 1013.4
20260510144032 54 0 0.0 4.0 0.00 0.21 0.01 91 1013.4
20260510143533 54 5 2.0 4.0 0.00 0.21 0.01 91 1013.4
20260510143044 54 5 0.0 4.0 0.00 0.21 0.01 91 1013.4
20260510142532 53 0 0.0 4.0 0.00 0.21 0.01 91 1013.3
20260510142031 52 5 2.0 4.0 0.00 0.21 0.01 91 1013.4
20260510141543 -66 5 1.0 4.0 0.00 0.21 0.01 91 1013.5
20260510141030 52 5 2.0 9.0 0.00 0.21 0.01 91 1013.4
20260510140532 52 5 2.0 9.0 0.00 0.21 0.01 91 1013.6
20260510140040 158 5 5.0 9.0 0.00 0.21 0.01 1013.6
20260510135531 53 5 5.0 9.0 0.00 0.21 0.01 1013.5
20260510135031 55 157 5.0 7.0 0.00 0.21 0.01 91 1013.6
20260510134535 56 157 3.0 6.0 0.00 0.21 0.01 91 1013.5
20260510134035 56 0 2.0 6.0 0.00 0.21 0.01 91 1013.4
20260510133530 56 0 2.0 6.0 0.00 0.21 0.01 92 1013.4
20260510133044 -59 0 1.0 7.0 0.00 0.21 0.01 1013.1
20260510132531 56 157 2.0 9.0 0.00 0.21 0.01 91 1013.0
20260510132032 -56 157 4.0 9.0 0.00 0.21 0.01 1012.9
20260510131540 -56 159 1.0 9.0 0.00 0.21 0.01 92 1012.8
20260510131031 56 157 2.0 6.0 0.00 0.21 0.01 92 1012.8
20260510130535 56 0 2.0 7.0 0.00 0.21 0.01 91 1012.8
20260510130044 55 157 1.0 7.0 0.00 0.21 0.01 1012.9
20260510125532 55 157 3.0 6.0 0.00 0.21 0.01 91 1012.9
20260510125031 55 157 2.0 8.0 0.00 0.21 0.01 91 1013.0
20260510124538 55 157 3.0 10.0 0.00 0.21 0.01 91 1013.0
20260510124031 55 157 4.0 10.0 0.00 0.21 0.01 91 1012.9
20260510123531 54 157 3.0 8.0 0.00 0.21 0.01 91 1012.8
20260510123043 54 0 1.0 7.0 0.00 0.21 0.01 91 1012.8
20260510122531 54 158 2.0 8.0 0.00 0.21 0.01 91 1012.8
20260510122030 54 158 3.0 8.0 0.00 0.21 0.01 1012.8
20260510121537 54 158 4.0 8.0 0.00 0.21 0.01 91 1012.7
20260510121031 54 159 2.0 5.0 0.00 0.21 0.01 1012.9
20260510120533 -61 0 1.0 7.0 0.00 0.21 0.01 91 1013.0
20260510120035 54 159 1.0 9.0 0.00 0.21 0.01 91 1013.1
20260510115534 54 159 1.0 9.0 0.00 0.21 0.01 91 1012.8
20260510115033 54 257 3.0 9.0 0.00 0.21 0.01 91 1012.6
20260510114605 53 290 2.0 5.0 0.00 0.21 0.01 1012.7
20260510114031 53 302 2.0 4.0 0.00 0.21 0.01 91 1012.9
20260510113531 53 303 0.0 4.0 0.00 0.21 0.01 91 1013.0
20260510113052 -63 0 0.0 0.0 0.00 0.21 0.01 1012.9
20260510112534 53 0 0.0 0.0 0.00 0.21 0.01 91 1013.0
20260510112031 52 0 0.0 0.0 0.00 0.21 0.01 1012.8
20260510111542 52 0 0.0 0.0 0.00 0.21 0.01 100 1012.9
20260510111030 53 0 0.0 1.0 0.00 0.21 0.01 91 1012.9
20260510110530 52 0 0.0 2.0 0.00 0.21 0.01 91 1012.8
20260510110040 52 0 0.0 2.0 0.00 0.21 0.01 91 1012.7
20260510105534 52 0 0.0 1.0 0.00 0.21 0.01 91 1012.8
20260510105032 52 0 0.0 2.0 0.01 0.21 0.01 91 1012.8
20260510104554 52 0 0.0 4.0 0.01 0.21 0.01 91 1012.8
20260510104030 52 0 1.0 4.0 0.01 0.21 0.01 91 1012.9
20260510103534 52 303 2.0 5.0 0.01 0.21 0.01 91 1012.8
20260510103045 52 303 2.0 5.0 0.01 0.21 0.01 91 1012.7
20260510102531 -66 303 4.0 5.0 0.01 0.21 0.01 1012.8
20260510102030 52 303 4.0 5.0 0.01 0.21 0.01 91 1012.8
20260510101541 52 303 3.0 5.0 0.01 0.21 0.01 100 1012.8
20260510101034 52 303 3.0 7.0 0.01 0.21 0.01 90 1012.8
20260510100531 52 303 4.0 8.0 0.01 0.21 0.01 1012.9
20260510100056 52 303 6.0 9.0 0.01 0.21 0.01 90 1013.0
20260510095534 52 303 3.0 9.0 0.01 0.21 0.01 90 1013.0
20260510095031 52 303 7.0 10.0 0.00 0.20 0.00 90 1013.0
20260510094555 52 301 7.0 10.0 0.00 0.20 0.00 90 1012.8
20260510094030 52 300 8.0 9.0 0.00 0.20 0.00 90 1012.7
20260510093530 52 0 0.0 0.0 0.00 0.20 0.00 90 1012.4
20260510093037 52 0 0.0 0.0 0.00 0.20 0.00 90 1012.2
20260510092531 53 0 0.0 0.0 0.00 0.20 0.00 90 1012.2
20260510092030 53 0 0.0 0.0 0.00 0.20 0.00 90 1012.0
20260510091545 158 0 0.0 0.0 0.00 0.20 0.00 100 1012.0
20260510091032 -66 0 0.0 0.0 0.00 0.20 0.00 1011.9
20260510090531 -66 0 0.0 0.0 0.00 0.20 0.00 100 1012.0
20260510090042 -66 0 0.0 0.0 0.00 0.20 0.00 1012.1
20260510085530 -66 0 0.0 0.0 0.00 0.20 0.00 100 1012.1
20260510085032 52 0 0.0 0.0 0.00 0.20 0.00 90 1012.1
20260510084540 158 0 0.0 0.0 0.00 0.20 0.00 1012.0
20260510084031 52 0 0.0 0.0 0.00 0.20 0.00 90 1012.0
20260510083531 -66 0 0.0 0.0 0.00 0.20 0.00 100 1011.9
20260510083042 52 0 0.0 2.0 0.00 0.20 0.00 1011.9
20260510082530 52 0 0.0 2.0 0.00 0.20 0.00 100 1011.9
20260510082030 52 0 0.0 3.0 0.00 0.20 0.00 90 1011.9
20260510081547 -66 279 1.0 3.0 0.00 0.20 0.00 1011.9
20260510081031 52 279 2.0 3.0 0.00 0.20 0.00 1011.9
20260510080534 52 279 1.0 3.0 0.00 0.20 0.00 90 1011.9
20260510080044 52 0 0.0 3.0 0.00 0.20 0.00 90 1011.9
20260510075532 52 0 1.0 3.0 0.00 0.20 0.00 90 1011.9
20260510075030 52 279 0.0 3.0 0.00 0.20 0.00 100 1011.9
20260510074544 52 279 2.0 3.0 0.00 0.20 0.00 90 1011.9
20260510074031 53 0 0.0 2.0 0.00 0.20 0.00 90 1011.9
20260510073534 53 0 0.0 2.0 0.00 0.20 0.00 90 1011.9
20260510073041 53 279 1.0 2.0 0.00 0.20 0.00 90 1011.8
20260510072531 53 0 0.0 0.0 0.00 0.20 0.00 90 1011.7
20260510072030 53 0 0.0 0.0 0.00 0.20 0.00 90 1011.9
20260510071539 53 0 0.0 0.0 0.00 0.20 0.00 90 1011.9
20260510071033 -63 0 0.0 0.0 0.00 0.20 0.00 1011.9
20260510070530 -63 0 0.0 2.0 0.00 0.20 0.00 1011.9
20260510070052 54 0 0.0 2.0 0.00 0.20 0.00 1011.8
20260510065531 158 0 0.0 2.0 0.00 0.20 0.00 100 1011.7
20260510065031 54 0 0.0 0.0 0.00 0.20 0.00 90 1011.8
20260510064550 54 0 0.0 0.0 0.00 0.20 0.00 90 1011.8
20260510064030 -63 0 0.0 3.0 0.00 0.20 0.00 100 1011.7
20260510063533 -63 0 1.0 3.0 0.00 0.20 0.00 1011.6
20260510063044 54 0 0.0 3.0 0.00 0.20 0.00 89 1011.5
20260510062531 54 0 0.0 3.0 0.00 0.20 0.00 89 1011.5
20260510062030 54 279 0.0 3.0 0.00 0.20 0.00 89 1011.5
20260510061541 54 279 0.0 2.0 0.00 0.20 0.00 100 1011.6
20260510061030 53 0 0.0 2.0 0.00 0.20 0.00 89 1011.6
20260510060532 53 0 0.0 2.0 0.00 0.20 0.00 89 1011.6
20260510060042 54 0 0.0 2.0 0.00 0.20 0.00 89 1011.7
20260510055530 54 0 0.0 2.0 0.00 0.20 0.00 89 1011.7
20260510055034 54 0 0.0 2.0 0.00 0.20 0.00 89 1011.7
20260510054545 53 0 0.0 0.0 0.00 0.20 0.00 89 1011.7
20260510054031 53 0 0.0 1.0 0.00 0.20 0.00 89 1011.7
20260510053534 53 0 0.0 1.0 0.00 0.20 0.00 89 1011.8
20260510053037 53 0 0.0 1.0 0.00 0.20 0.00 100 1011.8
20260510052533 53 0 0.0 1.0 0.00 0.20 0.00 89 1011.8
20260510052030 53 0 0.0 2.0 0.00 0.20 0.00 89 1011.8
20260510051544 53 0 0.0 2.0 0.00 0.20 0.00 89 1011.9
20260510051031 -63 0 0.0 4.0 0.00 0.20 0.00 100 1011.9
20260510050530 53 0 0.0 4.0 0.00 0.20 0.00 89 1011.9
20260510050048 53 0 0.0 2.0 0.00 0.20 0.00 89 1011.9
20260510045533 53 0 0.0 0.0 0.00 0.20 0.00 89 1011.8
20260510045030 53 0 0.0 0.0 0.00 0.20 0.00 89 1011.7
20260510044543 53 0 0.0 0.0 0.00 0.20 0.00 89 1011.7
20260510044030 53 0 0.0 1.0 0.00 0.20 0.00 89 1011.7
20260510043530 53 0 0.0 3.0 0.00 0.20 0.00 89 1011.6
20260510043041 53 0 0.0 4.0 0.00 0.20 0.00 100 1011.8
20260510042533 53 0 0.0 4.0 0.00 0.20 0.00 100 1011.6
20260510042029 53 279 1.0 3.0 0.00 0.20 0.00 89 1011.6
20260510041547 158 0 1.0 3.0 0.00 0.20 0.00 100 1011.7
20260510041035 -63 0 0.0 3.0 0.00 0.20 0.00 1011.6
20260510040537 -63 279 0.0 2.0 0.00 0.20 0.00 100 1011.6
20260510040038 54 0 0.0 3.0 0.00 0.20 0.00 89 1011.8
20260510035533 54 0 0.0 3.0 0.00 0.20 0.20 89 1011.8
20260510035031 54 0 0.0 4.0 0.00 0.20 0.20 100 1011.7
20260510034549 54 0 1.0 4.0 0.00 0.20 0.20 89 1011.8
20260510034031 54 279 1.0 4.0 0.00 0.20 0.20 1011.8
20260510033530 -63 279 1.0 4.0 0.00 0.20 0.20 1011.8
20260510033058 -63 0 0.0 3.0 0.00 0.20 0.20 1011.6
20260510032530 54 279 0.0 3.0 0.00 0.20 0.20 89 1011.6
20260510032030 54 279 0.0 2.0 0.00 0.20 0.20 1011.7
20260510031542 54 279 0.0 2.0 0.00 0.20 0.20 88 1011.7
20260510031031 54 279 0.0 0.0 0.00 0.20 0.20 88 1011.7
20260510030531 54 0 0.0 1.0 0.00 0.20 0.20 88 1011.7
20260510030037 54 0 0.0 3.0 0.00 0.20 0.20 88 1011.6
20260510025533 54 0 0.0 3.0 0.00 0.20 0.20 88 1011.6
20260510025034 54 0 0.0 3.0 0.00 0.20 0.20 88 1011.7
20260510024543 54 0 0.0 2.0 0.00 0.20 0.20 88 1011.7
20260510024030 54 279 0.0 2.0 0.00 0.20 0.20 88 1011.7
20260510023530 54 0 0.0 2.0 0.00 0.20 0.20 1011.7
20260510023045 54 0 0.0 2.0 0.00 0.20 0.20 88 1011.6
20260510022530 54 0 0.0 0.0 0.00 0.20 0.20 88 1011.6
20260510022029 54 0 0.0 0.0 0.00 0.20 0.20 88 1011.7
20260510021542 54 0 0.0 0.0 0.00 0.20 0.20 88 1011.8
20260510021030 54 0 0.0 1.0 0.00 0.20 0.20 1012.0
20260510020530 54 0 0.0 1.0 0.00 0.20 0.20 1011.8
20260510020039 -63 0 0.0 0.0 0.00 0.20 0.20 100 1011.9
20260510015529 53 0 0.0 0.0 0.00 0.20 0.20 88 1011.9
20260510015034 53 0 0.0 0.0 0.00 0.20 0.20 88 1012.0
20260510014551 53 0 0.0 1.0 0.00 0.20 0.20 88 1012.1
20260510014034 53 0 0.0 1.0 0.00 0.20 0.20 88 1012.0
20260510013530 54 0 0.0 0.0 0.00 0.20 0.20 1012.0
20260510013044 54 0 0.0 1.0 0.02 0.20 0.20 87 1011.9
20260510012535 54 0 0.0 2.0 0.04 0.20 0.20 87 1011.8
20260510012030 54 0 0.0 2.0 0.04 0.20 0.20 87 1011.4
20260510011543 54 279 0.0 2.0 0.07 0.20 0.20 87 1011.5
20260510011030 54 0 0.0 2.0 0.07 0.20 0.20 100 1011.5
20260510010530 54 0 0.0 2.0 0.07 0.20 0.20 87 1011.6
20260510010056 54 279 0.0 2.0 0.07 0.20 0.20 87 1011.6
20260510005530 53 0 0.0 1.0 0.08 0.20 0.20 87 1011.4
20260510005032 53 0 0.0 3.0 0.08 0.20 0.20 87 1011.5
20260510004541 53 0 0.0 3.0 0.08 0.20 0.20 87 1011.7
20260510004031 53 279 0.0 3.0 0.08 0.20 0.20 100 1011.7
20260510003530 53 0 0.0 3.0 0.07 0.19 0.19 86 1011.7
20260510003056 53 0 0.0 12.0 0.06 0.18 0.18 86 1011.7
20260510002530 54 0 2.0 12.0 0.04 0.16 0.16 86 1011.8
20260510002029 -63 180 4.0 10.0 0.03 0.15 0.15 86 1012.0
20260510001542 -63 173 4.0 11.0 0.01 0.13 0.13 1011.9
20260510001033 54 167 5.0 13.0 0.01 0.13 0.13 86 1011.4
20260510000534 54 165 4.0 13.0 0.01 0.13 0.13 86 1011.2
20260510000046 54 163 3.0 9.0 0.02 0.13 0.13 86 1011.1
20260509235530 54 159 4.0 9.0 0.01 0.12 0.12 86 1011.0
20260509235032 -63 159 3.0 10.0 0.02 0.12 0.12 1011.0
20260509234558 54 159 4.0 10.0 0.02 0.12 0.12 86 1010.9
20260509234035 54 159 4.0 10.0 0.03 0.12 0.12 86 1010.8
20260509233529 54 159 4.0 10.0 0.03 0.12 0.12 86 1010.9
20260509233043 54 159 3.0 10.0 0.03 0.12 0.12 86 1011.0
20260509232530 54 159 4.0 11.0 0.04 0.12 0.12 86 1011.0
20260509232119 54 159 4.0 11.0 0.05 0.12 0.12 86 1011.2
20260509231539 54 160 4.0 11.0 0.05 0.12 0.12 86 1011.2
20260509231029 54 157 4.0 11.0 0.05 0.12 0.12 85 1011.2
20260509230530 54 163 2.0 10.0 0.05 0.12 0.12 85 1011.3
20260509230037 -63 163 4.0 10.0 0.04 0.11 0.11 100 1011.7
20260509225530 54 0 3.0 7.0 0.04 0.11 0.11 84 1012.0
20260509225029 54 192 2.0 9.0 0.03 0.10 0.10 84 1012.2
20260509224547 54 192 2.0 10.0 0.02 0.09 0.09 84 1012.1
20260509224029 55 198 3.0 18.0 0.02 0.09 0.09 83 1012.1
20260509223533 55 188 5.0 18.0 0.02 0.09 0.09 83 1012.1
20260509223040 55 180 5.0 13.0 0.02 0.09 0.09 82 1012.2
20260509222529 55 199 2.0 10.0 0.01 0.08 0.08 82 1012.2
20260509222035 55 202 3.0 10.0 0.00 0.07 0.07 82 1012.5
20260509221541 -61 202 4.0 14.0 0.00 0.07 0.07 1012.7
20260509221032 56 200 4.0 14.0 0.00 0.07 0.07 81 1012.7
20260509220530 56 240 5.0 14.0 0.00 0.07 0.07 81 1012.6
20260509220054 56 200 3.0 10.0 0.00 0.07 0.07 81 1012.4
20260509215530 56 0 3.0 10.0 0.00 0.07 0.07 82 1012.5
20260509215034 56 196 3.0 13.0 0.00 0.07 0.07 82 1012.2
20260509214542 56 196 3.0 13.0 0.01 0.07 0.07 82 1012.1
20260509214029 -59 195 5.0 12.0 0.01 0.07 0.07 100 1012.1
20260509213532 56 199 3.0 13.0 0.01 0.07 0.07 83 1012.1
20260509213041 56 200 3.0 13.0 0.01 0.07 0.07 83 1012.1
20260509212533 56 225 5.0 12.0 0.01 0.07 0.07 83 1012.0
20260509212029 56 243 3.0 16.0 0.01 0.07 0.07 84 1012.2
20260509211546 56 194 7.0 16.0 0.01 0.07 0.07 84 1012.2
20260509211030 56 194 4.0 12.0 0.01 0.07 0.07 84 1012.2
20260509210531 57 202 3.0 13.0 0.01 0.07 0.07 1012.1
20260509210047 -59 212 5.0 15.0 0.01 0.07 0.07 100 1012.1
20260509205536 57 168 5.0 15.0 0.01 0.07 0.07 83 1012.1
20260509205030 57 200 5.0 16.0 0.02 0.07 0.07 83 1012.2
20260509204549 57 257 5.0 16.0 0.02 0.06 0.06 83 1012.2
20260509204030 57 201 7.0 18.0 0.03 0.06 0.06 83 1012.2
20260509203531 57 229 8.0 18.0 0.05 0.06 0.06 83 1012.1
20260509203039 58 248 8.0 17.0 0.05 0.06 0.06 1012.1
20260509202530 58 219 7.0 18.0 0.05 0.06 0.06 84 1012.3
20260509202029 58 215 5.0 18.0 0.05 0.06 0.06 84 1012.2
20260509201537 58 191 3.0 17.0 0.05 0.06 0.06 84 1012.2
20260509201029 57 192 7.0 17.0 0.05 0.06 0.06 84 1012.1
20260509200555 -56 244 3.0 11.0 0.05 0.06 0.06 1012.2
20260509200043 57 238 4.0 11.0 0.06 0.06 0.06 82 1012.4
20260509195531 58 243 3.0 11.0 0.06 0.06 0.06 82 1012.3
20260509195029 58 211 3.0 16.0 0.05 0.05 0.05 82 1012.3
20260509194540 58 215 4.0 16.0 0.04 0.04 0.04 81 1012.3
20260509194030 59 191 7.0 18.0 0.03 0.03 0.03 80 1012.2
20260509193529 59 198 7.0 20.0 0.01 0.01 0.01 1012.3
20260509193045 59 210 8.0 20.0 0.01 0.01 0.01 79 1012.1
20260509192536 59 187 5.0 14.0 0.01 0.01 0.01 80 1011.9
20260509192031 59 197 5.0 15.0 0.01 0.01 0.01 80 1011.8
20260509191540 59 188 6.0 17.0 0.01 0.01 0.01 80 1011.9
20260509191035 59 160 8.0 18.0 0.01 0.01 0.01 79 1011.7
20260509190532 59 181 5.0 22.0 0.01 0.01 0.01 1011.7
20260509190038 -54 142 8.0 22.0 0.00 0.00 0.00 1011.8
20260509185531 -52 190 7.0 18.0 0.00 0.00 0.00 100 1011.9
20260509185032 60 182 6.0 18.0 0.00 0.00 0.00 75 1012.0
20260509184539 60 144 5.0 15.0 0.00 0.00 0.00 1011.7
20260509184031 -50 197 7.0 20.0 0.00 0.00 0.00 73 1011.8
20260509183531 61 177 8.0 20.0 0.00 0.00 0.00 1011.8
20260509183038 61 145 6.0 19.0 0.00 0.00 0.00 72 1011.7
20260509182529 60 163 8.0 15.0 0.00 0.00 0.00 73 1012.0
20260509182031 60 189 5.0 14.0 0.00 0.00 0.00 74 1011.9
20260509181538 60 190 5.0 14.0 0.00 0.00 0.00 74 1011.8
20260509181033 59 200 4.0 14.0 0.00 0.00 0.00 74 1011.9
20260509180533 59 186 3.0 20.0 0.00 0.00 0.00 74 1012.0
20260509180037 59 181 6.0 20.0 0.00 0.00 0.00 74 1012.1
20260509175531 60 143 7.0 17.0 0.00 0.00 0.00 74 1011.9
20260509175032 60 193 7.0 17.0 0.00 0.00 0.00 73 1011.9
20260509174551 61 196 5.0 18.0 0.00 0.00 0.00 73 1012.1
20260509174030 61 199 7.0 18.0 0.00 0.00 0.00 73 1012.1
20260509173531 61 239 5.0 14.0 0.00 0.00 0.00 74 1012.0
20260509173045 61 180 6.0 13.0 0.00 0.00 0.00 75 1012.1
20260509172533 60 160 4.0 17.0 0.00 0.00 0.00 75 1012.2
20260509172030 59 184 7.0 17.0 0.00 0.00 0.00 75 1012.3
20260509171539 59 136 8.0 17.0 0.00 0.00 0.00 74 1012.4
20260509171031 60 190 7.0 13.0 0.00 0.00 0.00 75 1012.5
20260509170531 60 162 6.0 15.0 0.00 0.00 0.00 74 1012.6
20260509170046 60 171 5.0 15.0 0.00 0.00 0.00 74 1012.6
20260509165531 -52 140 4.0 15.0 0.00 0.00 0.00 74 1012.6
20260509165033 -50 205 6.0 15.0 0.00 0.00 0.00 1012.6
20260509164546 -50 187 6.0 15.0 0.00 0.00 0.00 1012.7
20260509164030 -50 153 7.0 17.0 0.00 0.00 0.00 1012.5
20260509163529 158 171 6.0 17.0 0.00 0.00 0.00 100 1012.8
20260509163045 60 165 7.0 16.0 0.00 0.00 0.00 75 1012.7
20260509162530 59 148 7.0 15.0 0.00 0.00 0.00 75 1012.7
20260509162034 59 146 6.0 15.0 0.00 0.00 0.00 76 1012.9
20260509161537 58 192 5.0 16.0 0.00 0.00 0.00 76 1012.7
20260509161036 58 122 5.0 16.0 0.00 0.00 0.00 75 1012.8